RH
21 21 21 22 25 25 24 25 25 24 22 20 18 16 22 24 27 28 28 28 28 27 26 26 26 24 23 23 23 23 25 25 24 23 22 20 19 19 18 18 19 18 18 18
22 22 21 23 24 26 29 30 30 29 28 26 24 22 27 27 27 30 31 33 33 32 30 29 28 27 27 27 28 29 29 29 28 27 25 24 23 23 23 22 22 22 23 23
26 26 28 29 31 32 31 32 32 31 31 30 30 27 32 35 35 36 37 38 38 37 35 35 33 32 31 32 34 34 34 31 29 28 28 27 28 29 29 29 28 29 30 29
29 28 27 29 29 31 35 33 36 36 37 35 32 30 31 36 40 42 44 46 45 43 41 39 38 36 38 40 40 39 35 33 33 33 32 33 34 33 34 33 33 35 35 34
31 29 31 33 33 36 37 37 38 39 40 41 39 41 28 40 40 44 47 50 52 49 47 45 44 46 46 45 44 39 38 37 37 36 35 37 37 37 37 38 39 40 41 41
28 30 32 32 34 36 37 38 44 45 44 45 38 41 25 39 42 49 50 52 54 52 52 52 50 50 51 48 44 43 42 40 37 37 37 40 42 44 43 45 45 46 47 46
34 33 36 38 40 44 45 52 57 56 60 47 43 48 33 42 45 47 51 53 53 53 54 53 51 51 50 50 46 44 42 40 40 42 43 48 49 50 51 51 50 51 52 55
35 34 30 31 33 38 47 53 65 72 65 59 54 49 44 51 54 58 63 65 63 60 57 59 55 50 47 45 43 38 37 44 45 50 51 54 56 55 55 56 54 55 56 54
33 31 30 35 39 42 49 51 60 70 70 94 62 61 63 63 66 66 67 69 68 65 61 60 54 47 42 40 37 38 40 43 45 48 58 59 64 62 59 58 54 52 51 50
35 39 37 41 48 54 53 62 72 87 93 91 68 66 61 66 71 73 74 71 70 67 66 65 60 53 43 33 35 38 38 31 35 43 51 62 68 67 68 65 62 63 65 59
37 39 37 45 53 60 63 73 80 80 89 92 84 61 66 71 73 76 75 73 74 70 65 64 60 47 39 35 34 30 26 26 26 34 41 51 65 69 73 71 69 68 70 72
41 51 42 41 59 60 64 68 75 93 86 92 92 69 73 79 79 80 81 80 80 77 66 60 58 50 40 37 31 28 29 28 27 27 34 33 48 52 58 74 76 76 74 75
44 54 47 40 41 67 72 73 75 81 91 81 94 78 81 79 87 86 84 85 87 74 58 60 64 54 49 39 30 32 30 28 28 31 29 37 33 37 35 36 48 69 75 80
52 41 43 51 50 63 76 78 78 80 95 89 86 73 81 79 83 88 89 86 79 71 65 64 65 58 43 36 34 30 30 28 31 28 29 26 37 33 37 35 31 32 42 51
58 60 60 54 62 66 67 76 77 83 79 89 68 79 74 83 85 88 84 87 81 74 70 69 66 58 46 41 34 30 26 23 28 31 25 24 28 34 30 30 35 30 31 35
61 67 68 74 69 69 71 73 84 83 83 89 84 76 82 83 77 82 87 82 74 71 72 72 71 59 50 42 36 30 25 21 23 29 25 22 22 24 33 24 28 30 29 26
51 61 74 63 73 79 75 71 76 75 76 79 81 76 78 77 74 73 71 69 69 71 72 76 69 62 52 43 38 31 25 19 20 27 25 15 19 21 21 26 27 24 22 22
51 63 82 78 89 82 59 66 71 73 74 78 73 76 79 78 77 69 66 67 70 71 70 67 63 57 52 45 40 34 29 21 19 20 25 16 12 16 24 20 24 24 21 22
47 71 92 82 69 74 68 75 74 76 72 71 76 77 78 74 70 71 69 69 69 68 65 60 55 52 51 46 43 40 35 31 23 21 21 21 16 14 15 20 18 15 20 17
60 74 78 75 90 86 74 76 77 75 72 66 61 59 60 63 63 60 63 65 66 63 60 59 59 56 52 48 46 43 40 38 34 24 20 19 21 17 17 17 17 17 16 15
84 82 78 91 96 86 78 77 76 75 66 55 48 44 46 48 48 47 49 53 56 56 58 59 58 61 57 52 49 47 44 41 36 33 30 21 20 20 20 20 20 20 19 18
74 87 87 94 95 88 75 76 74 72 60 49 49 48 44 39 40 43 47 51 51 55 57 56 56 56 56 52 52 50 49 42 38 37 39 31 19 18 18 19 20 22 22 22
90 82 85 83 78 78 73 71 71 69 51 50 50 42 38 38 42 44 47 50 55 60 62 57 55 56 60 54 53 52 48 44 41 40 35 36 30 20 21 22 22 22 24 26
80 80 79 79 80 76 74 66 64 57 51 45 42 38 37 38 42 46 49 53 59 62 63 70 69 62 57 55 59 56 49 44 43 41 36 34 32 31 23 22 23 25 27 26
78 78 79 80 81 81 75 70 60 52 43 38 37 35 37 39 44 47 51 53 61 63 60 64 69 62 57 61 64 55 50 47 43 42 40 36 33 30 28 26 24 24 25 28
79 74 80 85 77 76 70 53 46 40 36 33 32 34 39 43 45 48 49 52 56 57 60 59 52 57 67 67 63 55 50 48 46 43 42 39 35 33 30 29 28 28 26 27